COSMOS 2251 DEB

Satellite information

Favourite Embed

Satellite Type and Status

DEBRISIN ORBIT

Key statistics

Satellite COSMOS 2251 DEB at a glance.

Uptime

11810

Days in orbit

Revolutions

≈ 14.4

Per day

Orbit

LEO

Low Earth Orbit

Inclination

74.0

Latest

Satellite identification and parameters

Extended collection of information and parameters for COSMOS 2251 DEB.

Object identification

Identified? True

Debris? True

Object name: COSMOS 2251 DEB

International designator: 1993-036ANN

Object number (NORAD): 35647

Object ID (CCSDS): 35647

Country: COMMONWEALTH OF INDEPENDENT STATES (CIS)

Current information (Y/N): Y

RCS size: SMALL

Orbital parameters

Period: 99.794 minutes

Inclination: 74.021 deg

SMA: 7126.819 km

Apoapsis: 782.72 km

Periapsis: 714.649 km

RAAN: 86.9818 deg

Eccentricy: 0.00477574

Argument of periapsis: 207.5704 deg

Mean anomaly: 152.292 deg

Mean motion: 14.42976089 rev/day

Mean motion (dot): 0.0000303 rev/day2

B* drag term: 0.00090051854 1/REarth

Two-line elements (TLE)

Creation date: Sept. 22, 2025, 10:52 a.m.

Reference frame: TEME

Reference center: EARTH

Epoch: Sept. 21, 2025, 6:24 p.m. UTC

TLE line 0: 0 COSMOS 2251 DEB

TLE line 1: 1 35647U 93036ANN 25264.76693687 .00003030 00000-0 90052-3 0 9992

TLE line 2: 2 35647 74.0210 86.9818 0047757 207.5704 152.2920 14.42976089664812

Live tracking on map

Real-time ground track for satellite COSMOS 2251 DEB.

In-orbit conjunctions

A list of the most updated potential collisions computed for object COSMOS 2251 DEB.

Target Orbit TCA Probability of collision Miss distance Type
CZ-6A DEB LEO 2025-07-07 12:19:39 0.0001493826 324.0 (m) DEBRIS
OSCAR 17 (DOVE) SSO 2025-05-04 11:20:22 0.001048368 182.0 (m) PAYLOAD
CZ-6A DEB LEO 2025-01-31 11:36:47 0.0001769263 412.0 (m) DEBRIS
IRIDIUM 33 DEB LEO 2024-06-16 05:01:46 0.0001075252 300.0 (m) DEBRIS

Associated space launch

Military communications satellite. Destroyed in a collision with Iridium 33.

COSMOS 2251 DEB was lifted into orbit during the mission ‘Kosmos-3M | Strela-2M 51’, on board a Kosmos-3M space rocket.

The launch took place on June 16, 1993, 4:17 a.m. from 132/1 (132L).

For more information about the launch, click the button.

Launch to space Kosmos-3M | Strela-2M 51
Kosmos-3M | Strela-2M 51

Agency: N/A

Status: Launch Successful

Launch date: June 16, 1993, 4:17 a.m. UTC

Rocket: Kosmos-3M

Launch pad: 132/1 (132L)

Location: Plesetsk Cosmodrome, Russian Federation

...

Latest news about this satellite

There are no fresh news available about this satellite. Check back as we update our databases every day.


Newsletter sign-up

Weekly statistics, charts and insights to help you stay on top of the space industry.